DW0809 Weather Reports


Display with metric or nautical units.
time (UTC)temp
F
wind
direction
speed
MPH
gust
MPH
rain 1hr
in
rain 24hr
in
rain mn
in
humidity
%
barometer
mb
20260510023516 65 0.0 0.0 0.00 0.00 0.00 37 1015.4
20260510022515 66 0.0 0.0 0.00 0.00 0.00 37 1015.2
20260510021515 66 0.0 0.0 0.00 0.00 0.00 37 1015.0
20260510020515 67 0.0 0.0 0.00 0.00 0.00 36 1014.7
20260510015517 67 0.0 0.0 0.00 0.00 0.00 36 1014.4
20260510014517 67 0.0 0.0 0.00 0.00 0.00 37 1014.2
20260510013517 67 0.0 0.0 0.00 0.00 0.00 39 1013.7
20260510012517 68 0.0 0.0 0.00 0.00 0.00 40 1013.7
20260510011517 68 0.0 0.0 0.00 0.00 0.00 41 1013.5
20260510010517 68 0.0 0.0 0.00 0.00 0.00 40 1013.2
20260510005517 69 0.0 0.0 0.00 0.00 0.00 40 1013.1
20260510004537 69 0.0 0.0 0.00 0.00 0.00 40 1012.9
20260510003517 69 0.0 0.0 0.00 0.00 0.00 41 1012.8
20260510002517 70 0.0 0.0 0.00 0.00 0.00 42 1012.6
20260510001517 70 0.0 0.0 0.00 0.00 0.00 43 1012.6
20260510000517 70 0.0 0.0 0.00 0.00 0.00 43 1012.5
20260509235517 70 0.0 0.0 0.00 0.00 0.00 43 1012.5
20260509234517 70 0.0 0.0 0.00 0.00 0.00 44 1012.5
20260509233517 71 0.0 0.0 0.00 0.00 0.00 44 1012.5
20260509232517 71 0.0 0.0 0.00 0.00 0.00 43 1012.4
20260509231517 72 0.0 0.0 0.00 0.00 0.00 43 1012.5
20260509230517 71 0.0 0.0 0.00 0.00 0.00 44 1012.5
20260509225517 72 0.0 0.0 0.00 0.00 0.00 43 1012.3
20260509224517 72 0.0 0.0 0.00 0.00 0.00 43 1012.2
20260509223517 72 0.0 0.0 0.00 0.00 0.00 43 1012.2
20260509222517 73 0.0 0.0 0.00 0.00 0.00 42 1012.2
20260509221517 72 0.0 0.0 0.00 0.00 0.00 42 1012.0
20260509220517 72 0.0 0.0 0.00 0.00 0.00 41 1012.0
20260509215517 71 0.0 0.0 0.00 0.00 0.00 42 1011.8
20260509214517 72 0.0 0.0 0.00 0.00 0.00 40 1011.9
20260509213517 72 0.0 0.0 0.00 0.00 0.00 38 1011.8
20260509212517 73 0.0 0.0 0.00 0.00 0.00 39 1011.5
20260509211517 73 0.0 0.0 0.00 0.00 0.00 40 1011.4
20260509210517 74 0.0 0.0 0.00 0.00 0.00 39 1011.4
20260509205537 75 0.0 0.0 0.00 0.00 0.00 35 1011.2
20260509204517 78 0.0 0.0 0.00 0.00 0.00 30 1010.8
20260509203517 80 0.0 0.0 0.00 0.00 0.00 30 1011.0
20260509202517 80 0.0 0.0 0.00 0.00 0.00 28 1010.7
20260509201517 80 0.0 0.0 0.00 0.00 0.00 27 1010.6
20260509200537 80 0.0 0.0 0.00 0.00 0.00 27 1010.6
20260509195517 80 0.0 0.0 0.00 0.00 0.00 26 1010.6
20260509194517 79 0.0 0.0 0.00 0.00 0.00 27 1010.4
20260509193517 80 0.0 0.0 0.00 0.00 0.00 26 1010.6
20260509192516 79 0.0 0.0 0.00 0.00 0.00 29 1010.5
20260509191516 79 0.0 0.0 0.00 0.00 0.00 28 1010.5
20260509190517 79 0.0 0.0 0.00 0.00 0.00 30 1010.6
20260509185537 78 0.0 0.0 0.00 0.00 0.00 29 1010.6
20260509184517 78 0.0 0.0 0.00 0.00 0.00 28 1010.6
20260509183517 79 0.0 0.0 0.00 0.00 0.00 29 1010.8
20260509182516 78 0.0 0.0 0.00 0.00 0.00 30 1010.7
20260509181517 78 0.0 0.0 0.00 0.00 0.00 28 1010.5
20260509180517 78 0.0 0.0 0.00 0.00 0.00 28 1010.4
20260509175517 79 0.0 0.0 0.00 0.00 0.00 29 1010.3
20260509174517 78 0.0 0.0 0.00 0.00 0.00 28 1010.3
20260509173516 78 0.0 0.0 0.00 0.00 0.00 29 1010.3
20260509172516 77 0.0 0.0 0.00 0.00 0.00 32 1010.6
20260509171516 76 0.0 0.0 0.00 0.00 0.00 31 1010.4
20260509170536 75 0.0 0.0 0.00 0.00 0.00 33 1010.5
20260509165516 75 0.0 0.0 0.00 0.00 0.00 32 1010.7
20260509164537 74 0.0 0.0 0.00 0.00 0.00 36 1010.7
20260509163517 74 0.0 0.0 0.00 0.00 0.00 36 1010.4
20260509162516 74 0.0 0.0 0.00 0.00 0.00 36 1010.4
20260509161516 73 0.0 0.0 0.00 0.00 0.00 35 1010.5
20260509160516 73 0.0 0.0 0.00 0.00 0.00 35 1010.4
20260509155516 73 0.0 0.0 0.00 0.00 0.00 36 1010.4
20260509154517 73 0.0 0.0 0.00 0.00 0.00 36 1010.5
20260509153516 73 0.0 0.0 0.00 0.00 0.00 34 1010.6
20260509152516 73 0.0 0.0 0.00 0.00 0.00 34 1010.5
20260509151516 72 0.0 0.0 0.00 0.00 0.00 37 1010.0
20260509150516 71 0.0 0.0 0.00 0.00 0.00 39 1009.6
20260509145516 69 0.0 0.0 0.00 0.00 0.00 40 1009.6
20260509144516 68 0.0 0.0 0.00 0.00 0.00 43 1009.7
20260509143516 67 0.0 0.0 0.00 0.00 0.00 43 1009.6
20260509142516 66 0.0 0.0 0.00 0.00 0.00 44 1009.8
20260509141516 65 0.0 0.0 0.00 0.00 0.00 46 1009.8
20260509140516 63 0.0 0.0 0.00 0.00 0.00 48 1009.8
20260509135516 62 0.0 0.0 0.00 0.00 0.00 49 1009.8
20260509134516 61 0.0 0.0 0.00 0.00 0.00 51 1009.7
20260509133516 60 0.0 0.0 0.00 0.00 0.00 51 1009.5
20260509132516 59 0.0 0.0 0.00 0.00 0.00 54 1009.6
20260509131557 58 0.0 0.0 0.00 0.00 0.00 55 1009.5
20260509104536 53 0.0 0.0 0.00 0.00 0.00 61 1008.8
20260509103516 53 0.0 0.0 0.00 0.00 0.00 61 1008.8
20260509102516 53 0.0 0.0 0.00 0.00 0.00 61 1008.8
20260509101516 53 0.0 0.0 0.00 0.00 0.00 61 1008.7
20260509100516 54 0.0 0.0 0.00 0.00 0.00 60 1008.7
20260509095516 54 0.0 0.0 0.00 0.00 0.00 57 1008.9
20260509094536 54 0.0 0.0 0.00 0.00 0.00 56 1008.8
20260509093516 54 0.0 0.0 0.00 0.00 0.00 56 1008.9
20260509092536 54 0.0 0.0 0.00 0.00 0.00 57 1008.9
20260509091516 55 0.0 0.0 0.00 0.00 0.00 55 1008.9
20260509090516 55 0.0 0.0 0.00 0.00 0.00 53 1008.9
20260509085516 56 0.0 0.0 0.00 0.00 0.00 52 1009.0
20260509084516 56 0.0 0.0 0.00 0.00 0.00 50 1008.8
20260509083516 56 0.0 0.0 0.00 0.00 0.00 51 1008.7
20260509082516 56 0.0 0.0 0.00 0.00 0.00 50 1008.7
20260509081515 57 0.0 0.0 0.00 0.00 0.00 50 1008.8
20260509080515 57 0.0 0.0 0.00 0.00 0.00 50 1008.8
20260509075515 58 0.0 0.0 0.00 0.00 0.00 49 1008.8
20260509074515 58 0.0 0.0 0.00 0.00 0.00 48 1008.8
20260509073515 58 0.0 0.0 0.00 0.00 0.00 47 1008.8
20260509072515 59 0.0 0.0 0.00 0.00 0.00 47 1008.9
20260509071515 60 0.0 0.0 0.00 0.00 0.00 46 1008.9
20260509070516 60 0.0 0.0 0.00 0.00 0.00 44 1009.1
20260509065516 61 0.0 0.0 0.00 0.00 0.00 44 1009.0
20260509064516 61 0.0 0.0 0.00 0.00 0.00 43 1009.2
20260509063516 62 0.0 0.0 0.00 0.00 0.00 42 1009.3
20260509062516 62 0.0 0.0 0.00 0.00 0.00 42 1009.2
20260509061516 63 0.0 0.0 0.00 0.00 0.00 41 1009.3
20260509060515 63 0.0 0.0 0.00 0.00 0.00 40 1009.2
20260509055515 64 0.0 0.0 0.00 0.00 0.00 40 1009.2
20260509054515 64 0.0 0.0 0.00 0.00 0.00 40 1009.0
20260509053515 63 0.0 0.0 0.00 0.00 0.00 41 1008.9
20260509052535 63 0.0 0.0 0.00 0.00 0.00 41 1008.8
20260509051516 63 0.0 0.0 0.00 0.00 0.00 41 1008.7
20260509050555 63 0.0 0.0 0.00 0.00 0.00 41 1008.7
20260509045516 64 0.0 0.0 0.00 0.00 0.00 41 1008.8
20260509044516 63 0.0 0.0 0.00 0.00 0.00 41 1008.7
20260509043516 63 0.0 0.0 0.00 0.00 0.00 42 1008.3
20260509042516 62 0.0 0.0 0.00 0.00 0.00 45 1008.3
20260509041536 62 0.0 0.0 0.00 0.00 0.00 47 1008.3
20260509040516 62 0.0 0.0 0.00 0.00 0.00 48 1008.2
20260509035516 63 0.0 0.0 0.00 0.00 0.00 50 1008.2
20260509034516 64 0.0 0.0 0.00 0.00 0.00 49 1008.2
20260509033535 65 0.0 0.0 0.00 0.00 0.00 46 1008.2
20260509032516 66 0.0 0.0 0.00 0.00 0.00 44 1008.1
20260509031516 67 0.0 0.0 0.00 0.00 0.00 43 1008.0
20260509030535 68 0.0 0.0 0.00 0.00 0.00 40 1007.8
20260509025516 68 0.0 0.0 0.00 0.00 0.00 39 1007.7
20260509024516 69 0.0 0.0 0.00 0.00 0.00 39 1007.6